User: anonymous   Login
Location: Camp Creek
(33.9000°N, 111.8167°W)
Time: 02:35:15
(UTC-07:00)
Language:

DELTA 2 R/B (1) - Orbit

View from above orbital plane
View from above orbital plane
View from above satellite
View from above satellite

Ground track
Ground track

The orbit data is extracted from the following two-line orbital elements,

1 27665U 03005C   14325.64631766 -.00000011  00000-0  29356-4 0  1688
2 27665 039.5742 208.6454 0009715 281.3505 113.6937 14.28254529616705
Epoch (UTC): 21 November 2014 15:30:41
Eccentricity: 0.0009715
inclination: 39.5742°
perigee height: 790 km
apogee height: 804 km
right ascension of ascending node: 208.6454°
argument of perigee: 281.3505°
revolutions per day: 14.28254529
mean anomaly at epoch: 113.6937°
orbit number at epoch: 61670

The dashed part of the orbit path shows where the satellite is in the earth's shadow,  

DLR